STARLINK-2674 (48354 NORAD) Tracking and Keplerian Element Data

This shows tracking and keplerian element data for the satellite.

Feedback or suggestion? Click here.




ElementValue
Catalog48354
NameSTARLINK-2674
Epoch Orbit1380
Epoch Day214.62848158
Epoch Year2021
RAAN343.6957
Inclination53.0571
Eccentricity0.0001425
Argument of Perigee136.7701
Mean Anonmoly223.34
Mean Motion15.06392942
Decay Rate-5.85E-06
L11 48354U 21038B 21214.62848158 -.00000585 00000-0 -20404-4 0 9994
L22 48354 53.0571 343.6957 0001425 136.7701 223.3400 15.06392942 13808

Live tracking and technical data element details for STARLINK-2674 (NORAD 48354). STARLINK-2674 can be tracked NOW for your location showing map with azimuth and elevation plus other details from your city location.

Track the satellite on the map from your city or location and see movement details for azimuth, elevation, latitude, longitude, range, height, and movement on the map or in text.







IsCatalogInMostPopularTable: catalog: 48354, numindb: 28
Update: records affected: 1



GetName: 48354 STARLINK-2674

Hit Count: updated at: Tue, 03 Aug 2021 19:27:33 GMT